Skopje, Macedonia

7:53 AM CET on December 10, 2016 (GMT +0100)
Skopje | | Change Station

Elev 784 ft 41.97 °N, 21.65 °E | Updated 23 minutes ago

Mist
Mist
19 °F
Feels Like 19 °F
N
0
Wind Variable Wind from North

Today
High -- | Low -- °F
--% Chance of Precip.
Yesterday
High -- | Low -- °F
Precip. -- in
Pressure 30.39 in
Visibility -9999.0 miles
Clouds
Dew Point 18 °F
Humidity 93%
Rainfall 0.00 in
Snow Depth Not available.
6:50 AM 4:02 PM
Waxing Gibbous, 81% visible
METAR LWSK 100630Z 00000KT 3100 BR NSC M07/M08 Q1029 NOSIG
Pressure 30.39 in
Visibility -9999.0 miles
Clouds
Dew Point 18 °F
Humidity 93%
Rainfall 0.00 in
Snow Depth Not available.
6:50 AM 4:02 PM
Waxing Gibbous, 81% visible
METAR LWSK 100630Z 00000KT 3100 BR NSC M07/M08 Q1029 NOSIG

10-Day Weather Forecast

×

Almanac

Astronomy

Dec. 10, 2016 Rise Set
Actual Time
Civil Twilight
Nautical Twilight
Astronomical Twilight
Moon
Length of Visible Light
Length of Day
Tomorrow will be .
, % of the Moon is Illuminated

Today's Extremes

Country Highs Country Lows

Community

WunderPhotos

Upload Photos

1,956,527 photos uploaded!

WunderBlog® & News

Nearby

Air Quality

  Air Quality AQ Index Pollutant
Not available.

Snow Depth

Station Depth Elevation

Earthquake Activity

City Distance Mag. Time & Date
Minimum magnitude displayed is 2.5.

Coastal Water Temperatures

Place Temperature

Stations

Nearby Weather Stations

Station Location Temp. Windchill Dew Point Humidity Wind Precip. Elev Updated Type